Weather History for Columbus, OH

Change the Weather History Date:

Thursday, January 9, 2014

  Actual Average Record
Temperature  
Mean Temperature 28 °F 29 °F  
Max Temperature 35 °F 36 °F 62 °F (1949)
Min Temperature 21 °F 23 °F -5 °F (1979)
Degree Days  
Heating Degree Days 37 36  
Month to date heating degree days 403 317  
Since 1 July heating degree days 2396 2308  
Cooling Degree Days 0 0  
Month to date cooling degree days 0 0  
Year to date cooling degree days 0 0  
Moisture  
Dew Point 24 °F    
Average Humidity 78    
Maximum Humidity 92    
Minimum Humidity 64    
Precipitation  
Precipitation 0.10 in 0.08 in 0.86 in (1898)
Month to date precipitation 0.73 0.83  
Year to date precipitation 0.73 0.83  
Snow  
Snow 1.20 in 0.30 in 3.10 in (1996)
Month to date snowfall 4.8 2.5  
Since 1 July snowfall 22.2 8.6  
Snow Depth 0.00 in    
Sea Level Pressure  
Sea Level Pressure 30.44 in    
Wind  
Wind Speed 5 mph (SE)    
Max Wind Speed 12 mph    
Max Gust Speed 16 mph    
Visibility 5 miles    
Events Snow    
T = Trace of Precipitation, MM = Missing Value Source: NWS Daily Summary

Daily Weather History Graph

Daily Weather History Graph

Search for Another Location

Airport:

Trip Planner

Search our weather history database for the weather conditions in past years. The results will help you decide how hot, cold, wet, or windy it might be!

Date:

Astronomy

Jan. 09, 2014 Rise Set
Actual Time 7:53 AM EST 5:24 PM EST
Civil Twilight 7:23 AM EST 5:54 PM EST
Nautical Twilight 6:49 AM EST 6:28 PM EST
Astronomical Twilight 6:16 AM EST 7:00 PM EST
Moon 12:50 PM EST (1/9) 1:59 AM EST (1/9)
Length of Visible Light 10h 31m
Length of Day
9h 31m
Waxing Gibbous, 66% of the Moon is Illuminated
Jan 9
Waxing Gibbous
Jan 15
Full
Jan 24
Last Quarter
Jan 30
New
Feb 6
First Quarter

Hourly Weather History & Observations

Time (EST) Temp. Windchill Dew Point Humidity Pressure Visibility Wind Dir Wind Speed Gust Speed Precip Events Conditions
12:51 AM 25.0 °F 20.7 °F 19.0 °F 78% 30.51 in 3.0 mi North 3.5 mph - 0.00 in Snow Light Snow
1:51 AM 24.1 °F 19.7 °F 19.9 °F 84% 30.51 in 7.0 mi North 3.5 mph - 0.00 in Snow Light Snow
2:51 AM 24.1 °F 18.2 °F 19.9 °F 84% 30.53 in 8.0 mi North 4.6 mph - 0.00 in   Overcast
3:38 AM 24.8 °F 20.5 °F 19.4 °F 80% 30.50 in 9.0 mi NNE 3.5 mph - N/A   Overcast
3:51 AM 24.1 °F - 19.0 °F 81% 30.54 in 9.0 mi Calm Calm - N/A   Overcast
4:51 AM 24.1 °F 18.2 °F 19.0 °F 81% 30.53 in 9.0 mi NNE 4.6 mph - N/A   Overcast
5:51 AM 24.1 °F 19.7 °F 19.0 °F 81% 30.54 in 7.0 mi NE 3.5 mph - N/A   Overcast
6:51 AM 23.0 °F - 18.0 °F 81% 30.55 in 7.0 mi Calm Calm - N/A   Mostly Cloudy
7:51 AM 21.0 °F - 17.1 °F 85% 30.56 in 5.0 mi Calm Calm - N/A   Mostly Cloudy
8:51 AM 23.0 °F - 18.0 °F 81% 30.56 in 4.0 mi Calm Calm - N/A   Haze
9:51 AM 26.1 °F 17.6 °F 19.9 °F 78% 30.55 in 7.0 mi East 8.1 mph - N/A   Mostly Cloudy
10:51 AM 28.9 °F 19.8 °F 21.0 °F 72% 30.55 in 10.0 mi ESE 10.4 mph - N/A   Mostly Cloudy
11:51 AM 30.0 °F 21.7 °F 21.9 °F 72% 30.51 in 10.0 mi ESE 9.2 mph - N/A   Mostly Cloudy
12:51 PM 32.0 °F 26.4 °F 23.0 °F 69% 30.46 in 10.0 mi ESE 5.8 mph - N/A   Mostly Cloudy
1:51 PM 34.0 °F 27.2 °F 25.0 °F 70% 30.42 in 10.0 mi East 8.1 mph - N/A   Mostly Cloudy
2:51 PM 34.0 °F 28.0 °F 23.0 °F 64% 30.44 in 10.0 mi SSE 6.9 mph - N/A   Overcast
3:51 PM 35.1 °F 29.3 °F 23.0 °F 61% 30.44 in 5.0 mi SSE 6.9 mph - 0.00 in Snow Light Snow
4:51 PM 33.1 °F 27.7 °F 26.1 °F 75% 30.41 in 9.0 mi ESE 5.8 mph - 0.00 in Snow Light Snow
6:51 PM 33.1 °F - 26.1 °F 75% 30.40 in 10.0 mi Calm Calm - N/A   Mostly Cloudy
7:51 PM 33.1 °F - 27.0 °F 78% 30.40 in 9.0 mi Calm Calm - 0.00 in Snow Light Snow
8:30 PM 33.8 °F 30.8 °F 26.6 °F 75% 30.38 in 4.0 mi SE 3.5 mph - 0.00 in Snow Light Snow
8:38 PM 33.8 °F 25.8 °F 26.6 °F 75% 30.38 in 1.2 mi South 10.4 mph - 0.00 in Snow Light Snow
8:47 PM 32.0 °F 25.6 °F 28.4 °F 87% 30.38 in 0.8 mi South 6.9 mph - 0.01 in Snow Light Snow
8:48 PM 32.0 °F 25.6 °F 28.0 °F 85% 30.41 in 0.8 mi South 6.9 mph - 0.01 in Snow Light Snow
8:56 PM 32.0 °F 26.4 °F 28.4 °F 87% 30.38 in 2.0 mi South 5.8 mph - 0.02 in Snow Light Snow
9:06 PM 32.0 °F 25.6 °F 28.4 °F 87% 30.37 in 1.5 mi SSE 6.9 mph - 0.03 in Snow Light Snow
9:33 PM 32.0 °F 26.4 °F 28.4 °F 87% 30.36 in 1.0 mi SSE 5.8 mph - 0.05 in Snow Light Snow
9:46 PM 30.2 °F 24.3 °F 28.4 °F 93% 30.36 in 2.5 mi SE 5.8 mph - 0.07 in Snow Light Snow
9:51 PM 30.9 °F 26.2 °F 28.9 °F 92% 30.38 in 2.5 mi SE 4.6 mph - 0.07 in Snow Light Snow
10:04 PM 30.2 °F 25.4 °F 28.4 °F 93% 30.34 in 3.0 mi SE 4.6 mph - 0.00 in Snow Light Snow
10:51 PM 32.0 °F 27.5 °F 28.9 °F 88% 30.36 in 4.0 mi SE 4.6 mph - 0.02 in Snow Light Snow
10:59 PM 32.0 °F 28.7 °F 28.4 °F 87% 30.33 in 2.0 mi SE 3.5 mph - 0.00 in Snow Light Snow
11:11 PM 32.0 °F 28.7 °F 28.4 °F 87% 30.32 in 2.0 mi SE 3.5 mph - 0.00 in Snow Light Snow
11:19 PM 32.0 °F 27.5 °F 28.4 °F 87% 30.32 in 2.0 mi SE 4.6 mph - 0.00 in Snow Light Snow
11:48 PM 32.0 °F 26.4 °F 28.4 °F 87% 30.31 in 2.0 mi SE 5.8 mph - 0.00 in Snow Light Snow
11:51 PM 32.0 °F 27.5 °F 28.9 °F 88% 30.33 in 2.0 mi SSE 4.6 mph - 0.00 in   Overcast